Location: Cruquius
(52.3348°N, 4.6319°E)
Time: 14:06:56
(UTC+00:00)

Cosmos 990 Rocket - Pass Details

Date: 12 May 2021
Orbit: 747 x 769 km, 74.0° (Epoch: 19 June)

Event Time Altitude Azimuth Distance (km) Brightness Sun altitude
Exits shadow 22:19:53 15° 212° (SSW) 1,992 5.8 -17.3°
Maximum altitude 22:24:18 75° 297° (WNW) 799 4.1 -17.5°
Drops below altitude 10° 22:29:35 10° 23° (NNE) 2,322 7.2 -17.7°
Sets 22:31:59 0° 25° (NNE) 3,254 8.0 -17.9°
